Location: McFarlands Corners
(41.4117°N, 81.3382°W)
Time: 03:07:45
(UTC+00:00)

Tiros 1 - Pass Details

Date: 24 February 2026
Orbit: 618 x 649 km, 48.4° (Epoch: 13 March)

Event Time Altitude Azimuth Distance (km) Brightness Sun altitude
Rises 17:02:57 0° 298° (WNW) 2,903 10.2 38.7°
Reaches altitude 10° 17:05:17 10° 297° (WNW) 1,990 9.5 38.7°
Maximum altitude 17:09:51 79° 211° (SSW) 634 8.0 38.9°
Drops below altitude 10° 17:14:22 10° 125° (SE) 1,972 10.3 39.0°
Sets 17:16:40 0° 125° (SE) 2,875 11.0 39.1°
